Weather History for Perry, IA

Change the Weather History Date:

Friday, April 19, 2013

  Actual Average Record
Temperature  
Mean Temperature 36 °F -  
Max Temperature 42 °F 65 °F 89 °F (1985)
Min Temperature 30 °F 41 °F 19 °F (1983)
Degree Days  
Heating Degree Days 29    
Moisture  
Dew Point 26 °F    
Average Humidity 69    
Maximum Humidity 87    
Minimum Humidity 50    
Precipitation  
Precipitation 0.00 in - - ()
Sea Level Pressure  
Sea Level Pressure 29.85 in    
Wind  
Wind Speed 20 mph (NW)    
Max Wind Speed 28 mph    
Max Gust Speed 39 mph    
Visibility 10 miles    
Events      
Averages and records for this station are not official NWS values.
T = Trace of Precipitation, MM = Missing Value Source: NWS Daily Summary

Daily Weather History Graph

Daily Weather History Graph

Search for Another Location

Airport:

Trip Planner

Search our weather history database for the weather conditions in past years. The results will help you decide how hot, cold, wet, or windy it might be!

Date:

Astronomy

Apr. 19, 2013 Rise Set
Actual Time 6:29 AM CDT 8:02 PM CDT
Civil Twilight 6:00 AM CDT 8:31 PM CDT
Nautical Twilight 5:25 AM CDT 9:07 PM CDT
Astronomical Twilight 4:47 AM CDT 9:44 PM CDT
Moon 1:42 PM CDT (4/19) 2:51 AM CDT (4/19)
Length of Visible Light 14h 31m
Length of Day
13h 32m
First Quarter, 62% of the Moon is Illuminated
Apr 19
First Quarter
Apr 25
Full
May 2
Last Quarter
May 9
New
May 17
First Quarter

Hourly Weather History & Observations

Time (CDT) Temp. Windchill Dew Point Humidity Pressure Visibility Wind Dir Wind Speed Gust Speed Precip Events Conditions
12:15 AM 33.3 °F 21.5 °F 29.3 °F 85% 29.72 in 10.0 mi WNW 20.7 mph 33.4 mph N/A   Overcast
12:35 AM 33.4 °F 21.7 °F 29.5 °F 85% 29.72 in 10.0 mi WNW 20.7 mph 28.8 mph N/A   Overcast
12:55 AM 33.3 °F 21.5 °F 29.3 °F 85% 29.72 in 10.0 mi WNW 20.7 mph 29.9 mph N/A   Overcast
1:15 AM 33.1 °F 21.9 °F 29.5 °F 87% 29.72 in 10.0 mi WNW 18.4 mph 25.3 mph N/A   Overcast
1:35 AM 33.1 °F 21.9 °F 29.1 °F 85% 29.72 in 7.0 mi NW 18.4 mph 26.5 mph N/A   Overcast
1:55 AM 33.1 °F 22.6 °F 28.4 °F 83% 29.72 in 10.0 mi WNW 16.1 mph 26.5 mph N/A   Overcast
2:15 AM 33.1 °F 20.9 °F 28.2 °F 82% 29.72 in 10.0 mi WNW 21.9 mph 28.8 mph N/A   Overcast
2:35 AM 32.7 °F 21.1 °F 28.4 °F 84% 29.72 in 10.0 mi WNW 19.6 mph 31.1 mph N/A   Overcast
2:55 AM 32.5 °F 20.2 °F 27.7 °F 82% 29.72 in 10.0 mi WNW 21.9 mph 32.2 mph N/A   Overcast
3:15 AM 32.4 °F 20.3 °F 27.5 °F 82% 29.72 in 10.0 mi WNW 20.7 mph 28.8 mph N/A   Overcast
3:35 AM 32.0 °F 19.8 °F 27.1 °F 82% 29.72 in 10.0 mi NW 20.7 mph 27.6 mph N/A   Overcast
3:55 AM 32.0 °F 20.1 °F 26.8 °F 81% 29.72 in 10.0 mi WNW 19.6 mph 29.9 mph N/A   Overcast
4:15 AM 31.8 °F 19.3 °F 26.2 °F 80% 29.72 in 10.0 mi WNW 21.9 mph 31.1 mph N/A   Overcast
4:35 AM 31.8 °F 19.3 °F 25.7 °F 78% 29.72 in 10.0 mi WNW 21.9 mph 32.2 mph N/A   Overcast
4:55 AM 31.6 °F 20.0 °F 25.0 °F 76% 29.73 in 10.0 mi WNW 18.4 mph 32.2 mph N/A   Overcast
5:15 AM 31.1 °F 18.0 °F 24.1 °F 75% 29.73 in 10.0 mi WNW 23.0 mph 32.2 mph N/A   Mostly Cloudy
5:35 AM 30.9 °F 18.7 °F 23.9 °F 75% 29.73 in 10.0 mi WNW 19.6 mph 31.1 mph N/A   Scattered Clouds
5:55 AM 30.7 °F 17.5 °F 23.9 °F 76% 29.74 in 10.0 mi WNW 23.0 mph 27.6 mph N/A   Clear
6:15 AM 30.7 °F 18.8 °F 23.4 °F 74% 29.74 in 10.0 mi WNW 18.4 mph 27.6 mph N/A   Scattered Clouds
6:35 AM 30.2 °F 16.5 °F 23.5 °F 76% 29.75 in 10.0 mi WNW 24.2 mph 31.1 mph N/A   Scattered Clouds
6:55 AM 30.2 °F 17.4 °F 23.5 °F 76% 29.76 in 10.0 mi WNW 20.7 mph 26.5 mph N/A   Scattered Clouds
7:15 AM 30.2 °F 18.1 °F 23.7 °F 77% 29.76 in 10.0 mi WNW 18.4 mph 26.5 mph N/A   Scattered Clouds
7:35 AM 30.2 °F 17.1 °F 23.7 °F 77% 29.77 in 10.0 mi WNW 21.9 mph 29.9 mph N/A   Clear
7:55 AM 30.6 °F 17.9 °F 23.9 °F 76% 29.77 in 10.0 mi WNW 20.7 mph 29.9 mph N/A   Clear
8:15 AM 30.9 °F 18.1 °F 24.1 °F 76% 29.77 in 10.0 mi WNW 21.9 mph 31.1 mph N/A   Clear
8:35 AM 31.3 °F 18.2 °F 23.7 °F 74% 29.78 in 10.0 mi WNW 23.0 mph 33.4 mph N/A   Scattered Clouds
8:55 AM 31.8 °F 19.6 °F 23.9 °F 73% 29.78 in 10.0 mi WNW 20.7 mph 28.8 mph N/A   Scattered Clouds
9:15 AM 32.0 °F 19.2 °F 24.4 °F 74% 29.78 in 10.0 mi WNW 23.0 mph 34.5 mph N/A   Clear
9:35 AM 32.5 °F 19.6 °F 25.0 °F 74% 29.79 in 10.0 mi WNW 24.2 mph 33.4 mph N/A   Clear
9:55 AM 33.1 °F 20.6 °F 25.3 °F 73% 29.80 in 10.0 mi WNW 23.0 mph 35.7 mph N/A   Scattered Clouds
10:35 AM 34.9 °F 23.6 °F 26.6 °F 72% 29.81 in 10.0 mi NW 20.7 mph 29.9 mph N/A   Scattered Clouds
10:55 AM 35.6 °F 23.4 °F 27.7 °F 73% 29.82 in 10.0 mi WNW 25.3 mph 34.5 mph N/A   Scattered Clouds
11:15 AM 36.5 °F 25.7 °F 28.0 °F 71% 29.82 in 10.0 mi NW 20.7 mph 31.1 mph N/A   Scattered Clouds
11:35 AM 37.9 °F 26.8 °F 28.8 °F 70% 29.82 in 10.0 mi NW 24.2 mph 31.1 mph N/A   Scattered Clouds
11:55 AM 39.0 °F 27.6 °F 27.7 °F 64% 29.83 in 10.0 mi WNW 27.6 mph 33.4 mph N/A   Scattered Clouds
12:15 PM 39.2 °F 28.0 °F 27.7 °F 63% 29.83 in 10.0 mi NW 26.5 mph 33.4 mph N/A   Mostly Cloudy
12:35 PM 40.5 °F 30.4 °F 28.4 °F 62% 29.84 in 10.0 mi NW 23.0 mph 32.2 mph N/A   Overcast
12:55 PM 40.5 °F 30.4 °F 27.9 °F 61% 29.84 in 10.0 mi NW 23.0 mph 33.4 mph N/A   Overcast
1:15 PM 41.2 °F 31.6 °F 28.8 °F 61% 29.85 in 10.0 mi WNW 21.9 mph 33.4 mph N/A   Mostly Cloudy
1:35 PM 41.0 °F 31.6 °F 28.6 °F 61% 29.85 in 10.0 mi WNW 20.7 mph 28.8 mph N/A   Mostly Cloudy
1:55 PM 40.8 °F 30.7 °F 25.9 °F 55% 29.86 in 10.0 mi NW 24.2 mph 36.8 mph N/A   Mostly Cloudy
2:15 PM 41.9 °F 31.9 °F 27.5 °F 57% 29.87 in 10.0 mi WNW 25.3 mph 35.7 mph N/A   Mostly Cloudy
2:35 PM 42.1 °F 32.1 °F 27.7 °F 57% 29.87 in 10.0 mi NW 25.3 mph 33.4 mph N/A   Mostly Cloudy
2:55 PM 42.6 °F 32.8 °F 26.4 °F 53% 29.88 in 10.0 mi NW 25.3 mph 35.7 mph N/A   Mostly Cloudy
3:15 PM 41.7 °F 31.4 °F 25.2 °F 52% 29.88 in 10.0 mi WNW 26.5 mph 39.1 mph N/A   Mostly Cloudy
3:35 PM 42.6 °F 33.5 °F 26.4 °F 53% 29.89 in 10.0 mi NW 21.9 mph 32.2 mph N/A   Mostly Cloudy
3:55 PM 42.4 °F 33.3 °F 25.7 °F 52% 29.89 in 10.0 mi NW 21.9 mph 33.4 mph N/A   Scattered Clouds
4:15 PM 42.8 °F 34.3 °F 26.6 °F 53% 29.90 in 10.0 mi NW 19.6 mph 32.2 mph N/A   Mostly Cloudy
4:35 PM 41.4 °F 31.9 °F 25.3 °F 53% 29.91 in 10.0 mi NW 21.9 mph 26.5 mph N/A   Scattered Clouds
4:55 PM 40.5 °F 30.7 °F 25.3 °F 55% 29.92 in 10.0 mi NW 21.9 mph 26.5 mph N/A   Scattered Clouds
5:15 PM 41.4 °F 32.1 °F 25.7 °F 54% 29.92 in 10.0 mi WNW 20.7 mph 26.5 mph N/A   Scattered Clouds
5:35 PM 40.3 °F 31.0 °F 23.5 °F 51% 29.94 in 10.0 mi WNW 19.6 mph 31.1 mph N/A   Scattered Clouds
5:55 PM 41.4 °F 32.7 °F 23.9 °F 50% 29.94 in 10.0 mi NW 18.4 mph 28.8 mph N/A   Scattered Clouds
6:15 PM 40.3 °F 30.7 °F 24.3 °F 53% 29.95 in 10.0 mi NW 20.7 mph 24.2 mph N/A   Mostly Cloudy
6:35 PM 39.7 °F 30.9 °F 23.9 °F 53% 29.96 in 10.0 mi NW 17.3 mph 25.3 mph N/A   Scattered Clouds
6:55 PM 40.3 °F 31.6 °F 24.6 °F 54% 29.97 in 10.0 mi NW 17.3 mph 24.2 mph N/A   Mostly Cloudy
7:15 PM 39.4 °F 30.1 °F 24.1 °F 54% 29.98 in 10.0 mi NW 18.4 mph 25.3 mph N/A   Scattered Clouds
7:35 PM 38.3 °F 29.7 °F 23.0 °F 54% 29.99 in 10.0 mi NW 15.0 mph - N/A   Scattered Clouds
7:55 PM 37.4 °F 28.9 °F 23.5 °F 57% 29.99 in 10.0 mi NW 13.8 mph 20.7 mph N/A   Clear
8:15 PM 35.8 °F 27.8 °F 24.8 °F 64% 30.00 in 10.0 mi NW 11.5 mph - N/A   Clear
8:35 PM 35.1 °F 27.4 °F 24.8 °F 66% 30.01 in 10.0 mi NNW 10.4 mph - N/A   Clear
8:55 PM 34.7 °F 27.5 °F 25.5 °F 69% 30.02 in 10.0 mi NNW 9.2 mph - N/A   Clear
9:15 PM 34.3 °F 26.5 °F 25.0 °F 69% 30.04 in 10.0 mi NW 10.4 mph - N/A   Clear
9:35 PM 34.2 °F 26.2 °F 24.6 °F 68% 30.05 in 10.0 mi NW 10.4 mph - N/A   Clear
9:55 PM 33.4 °F 26.6 °F 25.2 °F 72% 30.05 in 10.0 mi NW 8.1 mph - N/A   Clear
10:15 PM 32.9 °F 25.9 °F 25.3 °F 74% 30.06 in 10.0 mi NW 8.1 mph - N/A   Clear
10:35 PM 32.7 °F 25.0 °F 25.3 °F 74% 30.06 in 10.0 mi NW 9.2 mph - N/A   Clear
10:55 PM 32.0 °F 26.4 °F 25.7 °F 78% 30.06 in 10.0 mi NW 5.8 mph - N/A   Clear
11:15 PM 32.0 °F 25.6 °F 25.7 °F 78% 30.07 in 10.0 mi NW 6.9 mph - N/A   Clear
11:35 PM 31.8 °F 26.2 °F 25.7 °F 78% 30.07 in 10.0 mi NW 5.8 mph - N/A   Clear
11:55 PM 31.8 °F 25.4 °F 25.2 °F 76% 30.08 in 10.0 mi NW 6.9 mph - N/A   Clear